GW2492 Weather Reports


Display with metric or nautical units.
time (UTC)temp
F
wind
direction
speed
MPH
gust
MPH
rain 1hr
in
rain 24hr
in
rain mn
in
humidity
%
barometer
mb
20260903173050 97 301 3.0 13.0 0.00 0.00 0.00 41 1014.2
20260903171550 96 230 8.0 18.0 0.00 0.00 0.00 43 1014.4
20260903170057 95 240 11.0 18.0 0.00 0.00 0.00 46 1014.6
20260903164602 94 213 12.0 17.0 0.00 0.00 0.00 47 1014.6
20260903163048 93 219 10.0 18.0 0.00 0.00 0.00 50 1014.6
20260903161556 92 232 9.0 16.0 0.00 0.00 0.00 52 1014.5
20260903160059 91 197 11.0 19.0 0.00 0.00 0.00 53 1014.5
20260903154559 90 225 9.0 17.0 0.00 0.00 0.00 55 1014.7
20260903153103 88 231 15.0 19.0 0.00 0.00 0.00 57 1014.6
20260903151557 87 226 10.0 18.0 0.00 0.00 0.00 61 1014.5
20260903150057 86 206 11.0 18.0 0.00 0.00 0.00 63 1014.5
20260903144554 85 239 14.0 20.0 0.00 0.00 0.00 65 1014.5
20260903143056 84 215 14.0 21.0 0.00 0.00 0.00 67 1014.4
20260903141557 82 219 12.0 20.0 0.00 0.00 0.00 69 1014.5
20260903140051 82 202 11.0 16.0 0.00 0.00 0.00 70 1014.5
20260903134559 81 234 11.0 16.0 0.00 0.00 0.00 72 1014.5
20260903133059 80 229 8.0 12.0 0.00 0.00 0.00 73 1014.6
20260903131558 79 234 5.0 8.0 0.00 0.00 0.00 74 1014.5
20260903130110 78 238 4.0 10.0 0.00 0.00 0.00 74 1014.3
20260903124549 78 224 6.0 12.0 0.00 0.00 0.00 74 1014.2
20260903123053 78 210 8.0 15.0 0.00 0.00 0.00 73 1013.9
20260903121556 78 214 10.0 17.0 0.00 0.00 0.00 72 1013.8
20260903120057 79 191 11.0 17.0 0.00 0.00 0.00 71 1013.7
20260903114600 79 208 11.0 15.0 0.00 0.00 0.00 70 1013.7
20260903113059 79 215 9.0 14.0 0.00 0.00 0.00 69 1013.7
20260903111615 79 203 11.0 15.0 0.00 0.00 0.00 68 1013.7
20260903110113 80 200 11.0 17.0 0.00 0.00 0.00 66 1013.7
20260903104553 80 193 10.0 18.0 0.00 0.00 0.00 65 1013.5
20260903103047 80 194 10.0 18.0 0.00 0.00 0.00 63 1013.6
20260903101605 81 200 12.0 17.0 0.00 0.00 0.00 62 1013.5
20260903100052 81 195 10.0 13.0 0.00 0.00 0.00 61 1013.5
20260903094601 81 191 7.0 11.0 0.00 0.00 0.00 60 1013.5
20260903093056 82 190 9.0 14.0 0.00 0.00 0.00 58 1013.6
20260903091550 83 177 10.0 14.0 0.00 0.00 0.00 57 1013.6
20260903090059 83 181 10.0 14.0 0.00 0.00 0.00 55 1013.6
20260903084559 82 182 8.0 12.0 0.00 0.00 0.00 55 1013.6
20260903083051 81 178 4.0 7.0 0.00 0.00 0.00 56 1013.8
20260903081550 80 185 3.0 7.0 0.00 0.00 0.00 56 1013.9
20260903080049 80 171 6.0 9.0 0.00 0.00 0.00 57 1013.9
20260903074606 81 174 6.0 11.0 0.00 0.00 0.00 57 1014.1
20260903073054 81 150 6.0 9.0 0.00 0.00 0.00 57 1014.2
20260903071554 81 161 6.0 8.0 0.00 0.00 0.00 57 1014.3
20260903070051 82 153 7.0 11.0 0.00 0.00 0.00 55 1014.4
20260903064601 82 148 7.0 12.0 0.00 0.00 0.00 55 1014.4
20260903063057 82 147 8.0 13.0 0.00 0.00 0.00 55 1014.4
20260903061558 83 141 6.0 11.0 0.00 0.00 0.00 54 1014.4
20260903060052 83 140 7.0 11.0 0.00 0.00 0.00 53 1014.4
20260903054557 83 138 7.0 10.0 0.00 0.00 0.00 53 1014.3
20260903053103 83 138 6.0 12.0 0.00 0.00 0.00 53 1014.5
20260903051557 84 128 5.0 9.0 0.00 0.00 0.00 52 1014.4
20260903044555 85 134 7.0 11.0 0.00 0.00 0.00 50 1014.3
20260903043056 86 140 6.0 13.0 0.00 0.00 0.00 49 1014.3
20260903041604 86 128 8.0 13.0 0.00 0.00 0.00 48 1014.4
20260903040059 86 135 5.0 10.0 0.00 0.00 0.00 46 1014.4
20260903034551 87 144 5.0 10.0 0.00 0.00 0.00 45 1014.4
20260903033052 88 129 5.0 10.0 0.00 0.00 0.00 43 1014.2
20260903031558 88 113 8.0 14.0 0.00 0.00 0.00 42 1014.1
20260903030057 88 113 7.0 12.0 0.00 0.00 0.00 42 1013.9
20260903024550 89 130 5.0 9.0 0.00 0.00 0.00 41 1013.6
20260903023059 90 119 4.0 10.0 0.00 0.00 0.00 40 1013.6
20260903021607 91 115 7.0 11.0 0.00 0.00 0.00 39 1013.4
20260903020052 91 114 5.0 9.0 0.00 0.00 0.00 39 1013.2
20260903014552 92 98 4.0 8.0 0.00 0.00 0.00 38 1013.1
20260903013104 93 117 5.0 9.0 0.00 0.00 0.00 38 1012.9
20260903011555 95 103 4.0 8.0 0.00 0.00 0.00 36 1012.8
20260903010109 96 98 3.0 7.0 0.00 0.00 0.00 34 1012.7
20260903004559 97 93 3.0 7.0 0.00 0.00 0.00 34 1012.7
20260903003050 98 100 5.0 11.0 0.00 0.00 0.00 33 1012.6
20260903001545 99 94 6.0 12.0 0.00 0.00 0.00 31 1012.6
20260903000106 99 46 2.0 10.0 0.00 0.00 0.00 30 1012.7
20260902234553 99 105 2.0 10.0 0.00 0.00 0.00 30 1012.8
20260902233050 99 83 3.0 9.0 0.00 0.00 0.00 31 1013.0
20260902231550 99 119 6.0 10.0 0.00 0.00 0.00 30 1013.0
20260902230056 99 103 3.0 8.0 0.00 0.00 0.00 31 1013.1
20260902224552 99 113 6.0 14.0 0.00 0.00 0.00 31 1013.1
20260902223051 100 99 4.0 10.0 0.00 0.00 0.00 31 1013.2
20260902221617 100 49 5.0 10.0 0.00 0.00 0.00 31 1013.3
20260902220056 99 69 8.0 13.0 0.00 0.00 0.00 31 1013.4
20260902214557 99 125 6.0 12.0 0.00 0.00 0.00 32 1013.4
20260902213102 100 20 3.0 12.0 0.00 0.00 0.00 32 1013.7
20260902211608 100 191 2.0 9.0 0.00 0.00 0.00 31 1013.9
20260902210100 101 145 5.0 10.0 0.00 0.00 0.00 32 1014.1
20260902204554 98 65 4.0 12.0 0.00 0.00 0.00 32 1014.4
20260902203055 98 105 3.0 9.0 0.00 0.00 0.00 34 1014.4
20260902201624 99 36 2.0 12.0 0.00 0.00 0.00 35 1014.7
20260902200112 98 96 1.0 15.0 0.00 0.00 0.00 36 1014.9
20260902194601 98 62 2.0 11.0 0.00 0.00 0.00 36 1015.1
20260902193056 97 16 4.0 10.0 0.00 0.00 0.00 36 1015.4
20260902191554 97 346 1.0 8.0 0.00 0.00 0.00 37 1015.6
20260902190049 96 192 5.0 11.0 0.00 0.00 0.00 38 1015.9
20260902184556 96 134 8.0 12.0 0.00 0.00 0.00 38 1015.9
20260902183057 96 239 5.0 12.0 0.00 0.00 0.00 39 1016.0
20260902181611 97 257 4.0 11.0 0.00 0.00 0.00 37 1016.3
20260902180059 95 338 1.0 9.0 0.00 0.00 0.00 39 1016.6
20260902174559 94 281 0.0 9.0 0.00 0.00 0.00 42 1017.0